Weather History for Evergreen, AL

Change the Weather History Date:

Tuesday, May 14, 2013

  Actual Average (KPRN) Record (KPRN)
Temperature  
Mean Temperature 66 °F -  
Max Temperature 84 °F 84 °F 93 °F (1955)
Min Temperature 48 °F 58 °F 46 °F (1960)
Cooling Degree Days 1    
Growing Degree Days 16 (Base 50)    
Moisture  
Dew Point 51 °F    
Average Humidity 61    
Maximum Humidity 90    
Minimum Humidity 32    
Precipitation  
Precipitation 0.00 in - - ()
Sea Level Pressure  
Sea Level Pressure 30.23 in    
Wind  
Wind Speed 2 mph (SW)    
Max Wind Speed 8 mph    
Max Gust Speed -    
Visibility 10 miles    
Events Rain    
Averages and records for this station are not official NWS values.
T = Trace of Precipitation, MM = Missing Value Source: NWS Daily Summary

Daily Weather History Graph

Daily Weather History Graph

Search for Another Location

Airport:

Trip Planner

Search our weather history database for the weather conditions in past years. The results will help you decide how hot, cold, wet, or windy it might be!

Date:

Astronomy

May. 14, 2013 Rise Set
Actual Time 5:52 AM CDT 7:36 PM CDT
Civil Twilight 5:25 AM CDT 8:03 PM CDT
Nautical Twilight 4:53 AM CDT 8:35 PM CDT
Astronomical Twilight 4:20 AM CDT 9:09 PM CDT
Moon 9:31 AM CDT (5/14) 11:26 PM CDT (5/14)
Length of Visible Light 14h 37m
Length of Day
13h 44m
Waxing Crescent, 19% of the Moon is Illuminated
May 14
Waxing Crescent
May 17
First Quarter
May 24
Full
May 31
Last Quarter
Jun 8
New

Hourly Weather History & Observations

Time (CDT) Temp. Heat Index Dew Point Humidity Pressure Visibility Wind Dir Wind Speed Gust Speed Precip Events Conditions
12:53 AM 51.1 °F - 48.0 °F 89% 30.23 in 10.0 mi Calm Calm - N/A   Clear
1:53 AM 51.1 °F - 48.0 °F 89% 30.23 in 10.0 mi Calm Calm - N/A   Clear
2:53 AM 50.0 °F - 46.9 °F 89% 30.22 in 10.0 mi Calm Calm - N/A   Clear
3:53 AM 48.9 °F - 46.0 °F 90% 30.23 in 10.0 mi Calm Calm - N/A   Clear
4:53 AM 48.9 °F - 46.0 °F 90% 30.24 in 10.0 mi Calm Calm - N/A   Clear
5:53 AM 48.9 °F - 46.0 °F 90% 30.25 in 10.0 mi Calm Calm - N/A   Clear
6:53 AM 52.0 °F - 48.0 °F 86% 30.27 in 10.0 mi Calm Calm - N/A   Clear
7:53 AM 59.0 °F - 53.1 °F 81% 30.28 in 10.0 mi Calm Calm - N/A   Clear
8:53 AM 68.0 °F - 53.1 °F 59% 30.29 in 10.0 mi Calm Calm - N/A   Clear
9:53 AM 73.0 °F - 51.1 °F 46% 30.30 in 10.0 mi Variable 3.5 mph - N/A   Clear
10:53 AM 75.9 °F - 50.0 °F 40% 30.30 in 10.0 mi SSW 4.6 mph - N/A   Clear
11:53 AM 80.1 °F - 51.1 °F 36% 30.29 in 10.0 mi SSW 5.8 mph - 0.00 in Rain Light Rain
12:53 PM 81.0 °F - 52.0 °F 36% 30.26 in 10.0 mi Variable 3.5 mph - 0.00 in   Clear
1:53 PM 82.0 °F - 51.1 °F 34% 30.23 in 10.0 mi ESE 3.5 mph - N/A   Clear
2:53 PM 84.0 °F - 51.1 °F 32% 30.21 in 10.0 mi West 8.1 mph - N/A   Clear
3:53 PM 82.9 °F - 50.0 °F 32% 30.19 in 10.0 mi West 4.6 mph - N/A   Clear
4:53 PM 82.9 °F - 51.1 °F 33% 30.17 in 10.0 mi WSW 5.8 mph - N/A   Clear
5:53 PM 82.0 °F - 51.1 °F 34% 30.17 in 10.0 mi WSW 4.6 mph - N/A   Clear
6:53 PM 80.1 °F 79.9 °F 53.1 °F 39% 30.17 in 10.0 mi Calm Calm - N/A   Clear
7:53 PM 71.1 °F - 57.0 °F 61% 30.17 in 10.0 mi Calm Calm - N/A   Clear
8:53 PM 64.9 °F - 59.0 °F 81% 30.19 in 10.0 mi South 8.1 mph - N/A   Clear
9:53 PM 69.1 °F - 54.0 °F 58% 30.20 in 10.0 mi SSW 6.9 mph - N/A   Clear
10:53 PM 66.0 °F - 54.0 °F 65% 30.20 in 10.0 mi Calm Calm - N/A   Clear
11:53 PM 64.0 °F - 54.0 °F 70% 30.19 in 10.0 mi Calm Calm - N/A   Clear